{"data":{"norad_id":41771,"intl_designator":"2016-058B","name":"SKYSAT-C4","alt_names":[],"object_type":"PAYLOAD","status":"ACTIVE","operator":null,"country":"US","launch_date":"2016-09-16","launch_site_code":"FRGUI","launch_vehicle":null,"mission":null,"orbit_class":"UNKNOWN","rcs_meters":0.387,"size_class":null,"mass_kg":null,"dimensions":null,"purposes":["earth_obs"],"wikipedia_slug":null,"has_3d_model":false,"image_url":null,"decayed_at":null,"tle_current":{"epoch":"2026-05-25T01:32:06.544032Z","epoch_age_seconds":62676,"freshness":"FRESH","line1":"1 41771U 16058B   26145.06396463  .00015050  00000+0  29177-3 0  9994","line2":"2 41771  96.9191 167.8158 0001949  66.8313 293.3144 15.47768698541897","mean_motion":15.47768698,"eccentricity":0.0001949,"inclination_deg":96.9191,"raan_deg":167.8158,"arg_perigee_deg":66.8313,"mean_anomaly_deg":293.3144,"bstar":0.00029177,"rev_number":54189,"period_min":93.037157416398,"perigee_km":421.92933936643,"apogee_km":424.580521941,"semimajor_km":6801.3919306537,"source":"CELESTRAK","updated_at":"2026-05-25T13:38:13.294842Z"}}}